PROBA-1 1 26958U 01049B 26121.53721517 .00003248 00000+0 21287-3 0 9996 2 26958 97.9612 128.4451 0053346 281.1518 78.3714 15.07324475336592 CUTE-1 (CO-55) 1 27844U 03031E 26121.46227727 .00000347 00000+0 16912-3 0 9996 2 27844 98.6752 130.6070 0008831 327.8386 32.2254 14.24306365185026 CUBESAT XI-IV (CO-57) 1 27848U 03031J 26121.00566327 .00000259 00000+0 13282-3 0 9991 2 27848 98.6788 129.9070 0009102 348.5967 11.5004 14.23594934184669 APRIZESAT 4 1 35684U 09041D 26121.45836579 .00001046 00000+0 13104-3 0 9991 2 35684 98.1421 195.8481 0044615 112.6347 247.9594 14.83809413904434 APRIZESAT 3 1 35686U 09041F 26121.35051227 .00002374 00000+0 20936-3 0 9997 2 35686 98.1992 272.3520 0061202 220.8127 138.8501 14.96077050909375 PROBA-2 1 36037U 09059B 26121.47279692 .00000227 00000+0 63457-4 0 9999 2 36037 98.2448 305.4741 0014454 67.5363 292.7363 14.54842426874739 APRIZESAT 5 1 37792U 11044E 26121.38971347 .00001034 00000+0 13788-3 0 9999 2 37792 98.2442 53.1134 0052857 152.1041 208.3022 14.80980159791860 APRIZESAT 6 1 37793U 11044F 26121.54626333 .00000737 00000+0 11144-3 0 9993 2 37793 98.2390 31.0898 0042001 234.2439 251.5672 14.76852095790264 PROBA-V 1 39159U 13021A 26121.52018797 .00000080 00000+0 53124-4 0 9991 2 39159 98.3563 102.4379 0002934 270.7061 89.3782 14.23586890674471 APRIZESAT 7 1 39416U 13066A 26121.39392211 .00001667 00000+0 17047-3 0 9992 2 39416 97.7676 75.3000 0036177 9.0644 351.1219 14.91451537674255 APRIZESAT 8 1 39425U 13066K 26121.39337007 .00001340 00000+0 15073-3 0 9999 2 39425 97.8192 69.5277 0047533 80.1962 280.4617 14.87550237672718 BUGSAT-1 (TITA) 1 40014U 14033E 26121.48254600 .00005405 00000+0 28986-3 0 9990 2 40014 98.0414 211.3235 0027725 343.1893 16.8416 15.15111936648768 SAUDISAT 4 1 40016U 14033G 26121.38543763 .00000901 00000+0 12567-3 0 9996 2 40016 97.7517 269.1572 0043854 224.3737 135.3958 14.79474773639154 APRIZESAT 9 1 40018U 14033J 26121.37373110 .00000599 00000+0 95593-4 0 9998 2 40018 97.8988 255.7353 0065934 352.0278 7.9877 14.74161211636661 APRIZESAT 10 1 40019U 14033K 26121.32344155 .00000662 00000+0 11126-3 0 9991 2 40019 97.9578 249.3480 0080047 63.9513 296.9907 14.70841063635366 TECHDEMOSAT-1 (TDS-1) 1 40076U 14037H 26121.53084917 .00010389 00000+0 59932-3 0 9992 2 40076 98.3806 109.1527 0007992 72.6395 287.5707 15.12556493641173 TECHNOSAT 1 42829U 17042E 26121.50280377 .00003865 00000+0 27824-3 0 9990 2 42829 97.4238 280.9613 0016032 251.1427 108.8061 15.04674083479689 FLYING LAPTOP 1 42831U 17042G 26121.52015928 .00002930 00000+0 23427-3 0 9990 2 42831 97.4477 278.9186 0017805 283.5094 76.4146 15.00844264479452 HAWK-A 1 43765U 18099H 26121.41258128 .00010594 00000+0 43125-3 0 9991 2 43765 97.3954 174.2700 0036967 90.6438 269.9035 15.24041862405978 HAWK-B 1 43794U 18099AN 26121.37890667 .00009420 00000+0 40577-3 0 9992 2 43794 97.4004 173.7484 0034133 107.4678 253.0294 15.22263518405913 HAWK-C 1 43799U 18099AT 26121.42764610 .00012764 00000+0 46597-3 0 9994 2 43799 97.3930 174.9713 0042815 91.4276 269.1868 15.27377212406777 SALSAT 1 46495U 20068K 26120.97394616 .00009136 00000+0 32572-3 0 9990 2 46495 97.8854 121.1916 0011671 106.1690 254.0834 15.29093123308148 HAWK-2C 1 47502U 21006CT 26121.13166759 .00009083 00000+0 27739-3 0 9997 2 47502 97.2318 166.3903 0007201 24.7794 335.3793 15.34095538292280 HAWK-2A 1 47505U 21006CW 26121.39548985 .00009109 00000+0 27805-3 0 9996 2 47505 97.2361 167.2991 0006890 28.4508 331.7110 15.34111746292323 HAWK-2B 1 47508U 21006CZ 26121.39253785 .00010353 00000+0 31547-3 0 9991 2 47508 97.2234 165.7048 0007311 25.1793 334.9805 15.34126288292323 HAWK-3B 1 48931U 21059BE 26121.53457347 .00047780 00000+0 46975-3 0 9991 2 48931 97.6688 313.9660 0006159 136.4432 223.7315 15.65865603270549 HAWK-3C 1 48948U 21059BX 26121.53428696 .00049449 00000+0 48623-3 0 9990 2 48948 97.6818 319.5682 0006545 136.0184 224.1597 15.65851691270546 HAWK-3A 1 48957U 21059CG 26121.53414013 .00048048 00000+0 47252-3 0 9999 2 48957 97.6766 316.8115 0006208 136.1402 224.0351 15.65856754270541 HAWK-5C 1 52754U 22057Y 26121.38397780 .00027424 00000+0 49516-3 0 9992 2 52754 97.6528 278.1206 0003940 225.3070 134.7860 15.49701179219097 HAWK-5B 1 52756U 22057AA 26121.51297716 .00023354 00000+0 42202-3 0 9990 2 52756 97.6536 276.6005 0004222 221.4728 138.6202 15.49709227219117 HAWK-5A 1 52757U 22057AB 26121.38359997 .00026361 00000+0 47602-3 0 9996 2 52757 97.6530 277.2969 0004387 223.7380 136.3523 15.49704114219097 HAWK-6B 1 55324U 23011A 26121.48620514 .00005962 00000+0 25993-3 0 9990 2 55324 40.4996 264.3747 0001884 38.2071 321.8871 15.22512060180720 HAWK-6C 1 55326U 23011C 26121.48556507 .00006035 00000+0 26298-3 0 9993 2 55326 40.4981 261.2221 0002562 23.9837 336.1091 15.22515890180732 HAWK-6A 1 55327U 23011D 26121.48560264 .00006039 00000+0 26319-3 0 9997 2 55327 40.4993 262.8420 0002271 17.7511 342.3378 15.22514582180735 HAWK-7A 1 56191U 23054P 26121.12831347 .00009554 00000+0 36448-3 0 9997 2 56191 97.2766 9.6649 0002742 164.1399 195.9927 15.26872424169844 HAWK-7B 1 56193U 23054R 26121.25932282 .00007803 00000+0 29829-3 0 9993 2 56193 97.2789 8.0395 0001893 160.3482 199.7830 15.26866704169860 HAWK-7C 1 56200U 23054Y 26121.25921613 .00007664 00000+0 29301-3 0 9998 2 56200 97.2764 8.8229 0002403 154.5568 205.5790 15.26866305169862